STARLINK-1046, 44751

Orbit data source: Space-Track

STARLINK-1046, 44751 is a payload satellite owned by SpaceX/Seattle (US) in LEO that was launched on Mon, 11 Nov 2019 UTC via an FALCON 9 launch vehicle from the Air Force Eastern Test Range (AFETR). Payload-class satellites include a variety of spacecraft equipped with specific instruments for various scientific and technological missions. These include communications satellites like Starlink; space stations such as the ISS; scientific satellites like the Hubble; Earth observation satellites from companies like Planet Labs, Umbra, and HawkEye 360; GPS; miniature CubeSats for education and research; and military/defense satellites.

Loading next visibility...
Identifier
44751, 2019-074AQ
Orbit
LEO
Country
Flag of USUS
Related business
Manufacturer
SpaceX/Seattle
Mission
Partially operational Commercial Communications
Bus & Motor
STARLINK, Unknown motor
Mass
260 kg wet, ~248 kg dry
Launch date (UTC)
2019-11-11 (6 years ago)
Launch vehicle
FALCON 9
Launch site
Air Force Eastern Test Range (AFETR)
Object type
Payload
Rocket body
Debris
Shape & HBR
Box + 1 Pan, 10.1 m
Radar Cross Section
13.562 m², Large (>1 m²)

Expand to show TLE details & history
Last TLE update: 17 hours ago

TLE from 17 hours ago
0 STARLINK-1046
1 44751U 19074AQ  26107.07760471  .00045413  00000-0  84268-3 0  9998
2 44751  53.0512  27.7923 0001676 323.8245  36.2649 15.48520432354350
Epoch: 2026-04-17T01:51Z
TLE epoch observation values (Epoch: 2026-04-17T01:51:45.046Z)
Latitude
-0.00002°
Longitude
154.63862°
Altitude
421.03 km
Speed
7.66 km/s
True Right ascension
01h 51m 10s
True Declination
0° 00' 00"
Sunlit
Object was in daylight at epoch
Visualization orbit readout
Latitude
Unknown
Longitude
Unknown
Altitude
Unknown
Speed
Unknown
Apparent Right ascension
Unknown
Apparent Declination
Unknown
Sunlit
N/A
Visualization observer readout
Local Sidereal Time
01:46:16
Azimuth
Unknown
Elevation
Unknown
Doppler factor
Unknown
Orbital elements
Apogee altitude
422.469 km
Perigee altitude
420.19 km
Semi-major axis
6,799.467 km
Eccentricity
0.00017
Inclination
53.0512°
RAAN
27.7923°
Arg. of periapsis
323.8245°
True anomaly
36.27626°
Mean anomaly
36.2649°
Eccentric anomaly
36.27058°
Mean motion
3.87107 °/min
Orbital period
93 mins
BSTAR
0.00084268
Loading maneuver chart data...
Computing Atmospheric mass density...

Documentation

Showing up to 5 results
|